AEE56N EDDS-LGAV

Flight info

Callsign AEE56N
Flight time 2h 10m
Altitude 35000
Route ABTAL4H/07 ABTAL L173 RIXED Y161 MAH L173 OTT M867 VAVOR DCT RADIZ DCT NEMEK DCT GLOMY DCT INLOT DCT PINDO DCT PIKOS UL607 XORKI
Aircraft A320/M-SDE3FGHIRWY/LB1

Departure

Time 2026-05-04 16:42
Airport Stuttgart Airport (EDDS)

Arrival

Time 2026-05-04 18:53
Airport Athens Eleftherios Venizelos International Airport (LGAV)
Time Latitude Longitude Altitude Speed Heading
2026-05-04 16:16 48.68914 9.19513 1315 ft 0 kts 344°
2026-05-04 16:34 48.68896 9.19521 1314 ft 4 kts 344°
2026-05-04 16:34 48.68871 9.19532 1312 ft 2 kts 344°
2026-05-04 16:35 48.68827 9.19491 1312 ft 1 kts 74°
2026-05-04 16:37 48.68830 9.19506 1311 ft 4 kts 74°
2026-05-04 16:37 48.68860 9.19663 1308 ft 11 kts 73°
2026-05-04 16:38 48.68885 9.19865 1302 ft 9 kts 124°
2026-05-04 16:39 48.68688 9.19985 1289 ft 9 kts 163°
2026-05-04 16:39 48.68675 9.19990 1288 ft 0 kts 164°
2026-05-04 16:40 48.68636 9.20007 1290 ft 9 kts 164°
2026-05-04 16:41 48.68589 9.20094 1283 ft 0 kts 74°
2026-05-04 16:41 48.68965 9.22070 1250 ft 146 kts 74°
2026-05-04 16:42 48.69917 9.27141 2707 ft 172 kts 75°
2026-05-04 16:43 48.70642 9.30966 3250 ft 210 kts 71°
2026-05-04 16:43 48.71576 9.35692 3899 ft 257 kts 72°
2026-05-04 16:43 48.72071 9.38306 4678 ft 264 kts 73°
2026-05-04 16:44 48.74138 9.49427 7836 ft 284 kts 77°
2026-05-04 16:45 48.74112 9.55300 9338 ft 284 kts 117°
2026-05-04 16:46 48.71183 9.63644 10622 ft 328 kts 121°
2026-05-04 16:46 48.68919 9.70005 11475 ft 351 kts 121°
2026-05-04 16:47 48.66597 9.76559 12657 ft 360 kts 120°
2026-05-04 16:47 48.64208 9.83303 13919 ft 368 kts 120°
2026-05-04 16:48 48.60502 9.93674 15532 ft 378 kts 121°
2026-05-04 16:48 48.59239 9.97181 16078 ft 382 kts 121°
2026-05-04 16:49 48.56685 10.04299 17138 ft 389 kts 121°
2026-05-04 16:49 48.54084 10.11547 18209 ft 396 kts 121°
2026-05-04 16:50 48.51434 10.18906 19166 ft 402 kts 121°
2026-05-04 16:50 48.48732 10.26372 20170 ft 408 kts 121°
2026-05-04 16:51 48.46009 10.33869 21101 ft 413 kts 122°
2026-05-04 16:51 48.44621 10.37677 21555 ft 416 kts 122°
2026-05-04 16:51 48.41815 10.45355 22409 ft 421 kts 121°
2026-05-04 16:52 48.38973 10.53132 23272 ft 426 kts 121°
2026-05-04 16:52 48.37542 10.57042 23670 ft 429 kts 121°
2026-05-04 16:53 48.34644 10.64943 24369 ft 434 kts 121°
2026-05-04 16:53 48.30220 10.76930 25367 ft 441 kts 122°
2026-05-04 16:54 48.28730 10.80959 25671 ft 443 kts 121°
2026-05-04 16:55 48.22671 10.97308 27013 ft 453 kts 121°
2026-05-04 16:55 48.19603 11.05534 27678 ft 457 kts 121°
2026-05-04 16:56 48.16489 11.13871 28469 ft 458 kts 121°
2026-05-04 16:56 48.11821 11.26299 29958 ft 453 kts 122°
2026-05-04 16:57 48.10275 11.30391 30380 ft 451 kts 122°
2026-05-04 16:57 48.07194 11.38544 31226 ft 449 kts 122°
2026-05-04 16:58 48.02594 11.50663 32495 ft 445 kts 122°
2026-05-04 16:58 48.01071 11.54671 32921 ft 443 kts 122°
2026-05-04 16:59 47.98033 11.62654 33803 ft 440 kts 123°
2026-05-04 17:00 47.92002 11.78427 34889 ft 441 kts 123°
2026-05-04 17:00 47.87354 11.90506 34914 ft 452 kts 123°
2026-05-04 17:01 47.84213 11.98626 34917 ft 453 kts 123°
2026-05-04 17:02 47.77919 12.14883 34913 ft 453 kts 123°
2026-05-04 17:03 47.73176 12.27033 34919 ft 453 kts 123°
2026-05-04 17:03 47.68417 12.39149 34920 ft 452 kts 123°
2026-05-04 17:04 47.61781 12.54933 34924 ft 448 kts 135°
2026-05-04 17:05 47.52856 12.67685 34921 ft 446 kts 139°
2026-05-04 17:06 47.46116 12.77209 34934 ft 447 kts 139°
2026-05-04 17:07 47.40118 12.85649 34951 ft 447 kts 139°
2026-05-04 17:07 47.34861 12.92995 34962 ft 448 kts 139°
2026-05-04 17:08 47.28078 13.02482 34983 ft 449 kts 139°
2026-05-04 17:09 47.23540 13.08801 34978 ft 450 kts 139°
2026-05-04 17:09 47.18988 13.15109 35003 ft 450 kts 139°
2026-05-04 17:10 47.07595 13.30865 35017 ft 450 kts 139°
2026-05-04 17:11 47.03026 13.37149 35017 ft 451 kts 139°
2026-05-04 17:12 46.96148 13.46574 35039 ft 452 kts 139°
2026-05-04 17:13 46.84698 13.62221 35050 ft 452 kts 139°
2026-05-04 17:14 46.75486 13.74741 35054 ft 453 kts 140°
2026-05-04 17:15 46.68554 13.84115 35060 ft 453 kts 140°
2026-05-04 17:16 46.59300 13.96562 35059 ft 453 kts 139°
2026-05-04 17:17 46.50030 14.08978 35027 ft 453 kts 140°
2026-05-04 17:18 46.40740 14.21374 35034 ft 454 kts 139°
2026-05-04 17:19 46.31414 14.33744 35060 ft 455 kts 139°
2026-05-04 17:20 46.22074 14.46077 35067 ft 455 kts 140°
2026-05-04 17:20 46.15062 14.55302 35057 ft 455 kts 140°
2026-05-04 17:21 46.05681 14.67580 35071 ft 456 kts 139°
2026-05-04 17:22 46.01013 14.73678 35061 ft 456 kts 140°
2026-05-04 17:23 45.91604 14.85900 35030 ft 456 kts 139°
2026-05-04 17:24 45.85330 14.94030 35047 ft 457 kts 139°
2026-05-04 17:25 45.75880 15.06226 35051 ft 457 kts 140°
2026-05-04 17:26 45.66382 15.18412 35010 ft 460 kts 139°
2026-05-04 17:27 45.54434 15.33617 35027 ft 460 kts 140°
2026-05-04 17:28 45.44693 15.45477 35039 ft 460 kts 141°
2026-05-04 17:29 45.30141 15.63208 35055 ft 459 kts 140°
2026-05-04 17:31 45.18014 15.77912 35051 ft 460 kts 141°
2026-05-04 17:32 45.05823 15.92584 35062 ft 460 kts 140°
2026-05-04 17:33 44.96041 16.04301 35046 ft 462 kts 141°
2026-05-04 17:34 44.86222 16.15995 35060 ft 462 kts 141°
2026-05-04 17:35 44.73902 16.30627 35066 ft 464 kts 141°
2026-05-04 17:36 44.68951 16.36477 35070 ft 465 kts 141°
2026-05-04 17:36 44.63998 16.42319 35084 ft 465 kts 141°
2026-05-04 17:37 44.59037 16.48149 35077 ft 466 kts 140°
2026-05-04 17:37 44.54059 16.53983 35075 ft 467 kts 141°
2026-05-04 17:38 44.49066 16.59815 35081 ft 467 kts 141°
2026-05-04 17:38 44.44074 16.65644 35098 ft 467 kts 141°
2026-05-04 17:39 44.36612 16.74350 35103 ft 468 kts 140°
2026-05-04 17:39 44.31600 16.80173 35079 ft 469 kts 141°
2026-05-04 17:40 44.26578 16.85991 35093 ft 470 kts 141°
2026-05-04 17:40 44.21538 16.91803 35089 ft 470 kts 141°
2026-05-04 17:41 44.16492 16.97615 35113 ft 471 kts 140°
2026-05-04 17:41 44.11446 17.03423 35101 ft 471 kts 140°
2026-05-04 17:42 44.06393 17.09235 35094 ft 472 kts 141°
2026-05-04 17:42 44.01325 17.15040 35094 ft 472 kts 141°
2026-05-04 17:43 43.96248 17.20833 35116 ft 472 kts 141°
2026-05-04 17:43 43.91168 17.26619 35109 ft 473 kts 140°
2026-05-04 17:44 43.86114 17.32378 35101 ft 473 kts 140°
2026-05-04 17:44 43.81019 17.38164 35109 ft 474 kts 141°
2026-05-04 17:45 43.75912 17.43948 35109 ft 474 kts 141°
2026-05-04 17:45 43.70805 17.49711 35118 ft 474 kts 140°
2026-05-04 17:46 43.65683 17.55474 35113 ft 474 kts 140°
2026-05-04 17:46 43.60557 17.61237 35102 ft 475 kts 140°
2026-05-04 17:47 43.55459 17.66963 35102 ft 476 kts 140°
2026-05-04 17:47 43.50384 17.72817 35105 ft 477 kts 139°
2026-05-04 17:48 43.45355 17.78770 35120 ft 477 kts 139°
2026-05-04 17:48 43.40312 17.84703 35120 ft 477 kts 139°
2026-05-04 17:49 43.35236 17.90599 35118 ft 477 kts 139°
2026-05-04 17:49 43.30155 17.96479 35117 ft 477 kts 139°
2026-05-04 17:50 43.25073 18.02354 35122 ft 478 kts 139°
2026-05-04 17:50 43.19991 18.08227 35127 ft 478 kts 139°
2026-05-04 17:51 43.14901 18.14095 35125 ft 478 kts 139°
2026-05-04 17:51 43.09813 18.19945 35123 ft 478 kts 139°
2026-05-04 17:52 43.04744 18.25759 35131 ft 479 kts 139°
2026-05-04 17:52 42.99625 18.31605 35138 ft 480 kts 139°
2026-05-04 17:53 42.94503 18.37460 35146 ft 480 kts 139°
2026-05-04 17:53 42.89386 18.43295 35156 ft 480 kts 139°
2026-05-04 17:54 42.84247 18.49133 35135 ft 481 kts 139°
2026-05-04 17:54 42.79106 18.54969 35131 ft 482 kts 139°
2026-05-04 17:55 42.73952 18.60801 35127 ft 482 kts 139°
2026-05-04 17:55 42.68790 18.66633 35122 ft 482 kts 139°
2026-05-04 17:56 42.63629 18.72456 35102 ft 482 kts 140°
2026-05-04 17:56 42.58450 18.78265 35124 ft 483 kts 140°
2026-05-04 17:57 42.53268 18.84065 35129 ft 483 kts 139°
2026-05-04 17:57 42.48121 18.89833 35125 ft 483 kts 139°
2026-05-04 17:58 42.42941 18.95628 35118 ft 483 kts 139°
2026-05-04 17:58 42.37761 19.01403 35101 ft 483 kts 139°
2026-05-04 17:59 42.32555 19.07177 35109 ft 484 kts 140°
2026-05-04 18:00 42.24744 19.15838 35128 ft 484 kts 139°
2026-05-04 18:00 42.19536 19.21603 35128 ft 484 kts 139°
2026-05-04 18:01 42.14325 19.27346 35104 ft 484 kts 140°
2026-05-04 18:01 42.09108 19.33081 35111 ft 484 kts 139°
2026-05-04 18:02 42.01278 19.41685 35114 ft 484 kts 140°
2026-05-04 18:02 41.96033 19.47386 35136 ft 484 kts 140°
2026-05-04 18:03 41.90696 19.52911 35135 ft 484 kts 142°
2026-05-04 18:03 41.85320 19.58355 35138 ft 484 kts 142°
2026-05-04 18:04 41.79959 19.63811 35141 ft 484 kts 141°
2026-05-04 18:05 41.71983 19.72009 35129 ft 484 kts 141°
2026-05-04 18:05 41.66635 19.77481 35129 ft 484 kts 141°
2026-05-04 18:06 41.58594 19.85666 35157 ft 484 kts 142°
2026-05-04 18:06 41.53235 19.91106 35161 ft 484 kts 142°
2026-05-04 18:07 41.47874 19.96525 35150 ft 483 kts 142°
2026-05-04 18:07 41.42520 20.01933 35140 ft 483 kts 142°
2026-05-04 18:08 41.37148 20.07348 35136 ft 484 kts 142°
2026-05-04 18:08 41.31774 20.12760 35132 ft 485 kts 142°
2026-05-04 18:09 41.21009 20.23579 35151 ft 484 kts 142°
2026-05-04 18:10 41.15667 20.28922 35141 ft 485 kts 142°
2026-05-04 18:10 41.10270 20.34303 35125 ft 486 kts 142°
2026-05-04 18:11 41.04868 20.39691 35127 ft 486 kts 142°
2026-05-04 18:11 40.99450 20.45073 35128 ft 487 kts 142°
2026-05-04 18:12 40.94031 20.50441 35135 ft 487 kts 142°
2026-05-04 18:12 40.89487 20.54945 35138 ft 487 kts 141°
2026-05-04 18:13 40.84101 20.60272 35137 ft 487 kts 142°
2026-05-04 18:14 40.75964 20.68290 35132 ft 487 kts 142°
2026-05-04 18:14 40.70533 20.73624 35121 ft 487 kts 142°
2026-05-04 18:15 40.59656 20.84282 35134 ft 488 kts 142°
2026-05-04 18:16 40.54201 20.89623 35129 ft 489 kts 142°
2026-05-04 18:16 40.48741 20.94950 35133 ft 489 kts 141°
2026-05-04 18:17 40.40954 21.03492 35129 ft 488 kts 136°
2026-05-04 18:18 40.33426 21.12523 35137 ft 489 kts 136°
2026-05-04 18:18 40.28328 21.18428 35151 ft 489 kts 137°
2026-05-04 18:19 40.20605 21.27190 35142 ft 490 kts 137°
2026-05-04 18:19 40.15457 21.33054 35126 ft 491 kts 137°
2026-05-04 18:20 40.10314 21.38934 35131 ft 491 kts 137°
2026-05-04 18:20 40.05163 21.44797 35130 ft 492 kts 137°
2026-05-04 18:21 39.99991 21.50653 35139 ft 492 kts 137°
2026-05-04 18:21 39.94830 21.56498 35136 ft 492 kts 137°
2026-05-04 18:22 39.89676 21.62344 35127 ft 492 kts 137°
2026-05-04 18:22 39.84505 21.68185 35131 ft 492 kts 137°
2026-05-04 18:23 39.79333 21.74002 35131 ft 492 kts 137°
2026-05-04 18:23 39.74175 21.79766 35152 ft 492 kts 137°
2026-05-04 18:24 39.68994 21.85574 35142 ft 492 kts 137°
2026-05-04 18:24 39.63810 21.91386 35135 ft 493 kts 138°
2026-05-04 18:25 39.58617 21.97188 35126 ft 493 kts 138°
2026-05-04 18:25 39.53415 22.02994 35127 ft 493 kts 138°
2026-05-04 18:26 39.48200 22.08791 35123 ft 494 kts 138°
2026-05-04 18:26 39.42986 22.14576 35146 ft 494 kts 138°
2026-05-04 18:27 39.37765 22.20358 35122 ft 494 kts 138°
2026-05-04 18:27 39.32568 22.26095 35119 ft 495 kts 138°
2026-05-04 18:28 39.27319 22.31881 35118 ft 496 kts 138°
2026-05-04 18:28 39.22068 22.37659 35129 ft 497 kts 138°
2026-05-04 18:29 39.16801 22.43437 35125 ft 497 kts 138°
2026-05-04 18:29 39.11529 22.49218 35151 ft 497 kts 138°
2026-05-04 18:30 39.03617 22.57880 35126 ft 499 kts 138°
2026-05-04 18:31 38.98321 22.63657 35129 ft 499 kts 138°
2026-05-04 18:31 38.93014 22.69422 35137 ft 500 kts 139°
2026-05-04 18:32 38.87705 22.75187 35147 ft 500 kts 138°
2026-05-04 18:32 38.85050 22.78064 34736 ft 498 kts 138°
2026-05-04 18:32 38.82401 22.80934 34113 ft 499 kts 138°
2026-05-04 18:32 38.79744 22.83812 33324 ft 501 kts 138°
2026-05-04 18:33 38.77085 22.86691 32606 ft 501 kts 138°
2026-05-04 18:33 38.74427 22.89568 31936 ft 500 kts 138°
2026-05-04 18:33 38.71771 22.92439 31281 ft 498 kts 138°
2026-05-04 18:33 38.69133 22.95282 30548 ft 493 kts 138°
2026-05-04 18:34 38.66516 22.98095 29248 ft 490 kts 139°
2026-05-04 18:34 38.63933 23.00864 28256 ft 478 kts 139°
2026-05-04 18:34 38.61406 23.03572 27416 ft 472 kts 139°
2026-05-04 18:34 38.58921 23.06237 26740 ft 460 kts 139°
2026-05-04 18:35 38.56499 23.08836 25770 ft 450 kts 139°
2026-05-04 18:35 38.54120 23.11390 24775 ft 444 kts 139°
2026-05-04 18:35 38.51767 23.13914 24343 ft 437 kts 139°
2026-05-04 18:35 38.49464 23.16379 23910 ft 428 kts 139°
2026-05-04 18:36 38.47195 23.18805 23356 ft 423 kts 139°
2026-05-04 18:36 38.44978 23.21177 22760 ft 418 kts 139°
2026-05-04 18:36 38.42761 23.23548 22171 ft 414 kts 139°
2026-05-04 18:36 38.40565 23.25891 21589 ft 410 kts 139°
2026-05-04 18:37 38.38378 23.28215 21040 ft 407 kts 139°
2026-05-04 18:37 38.36214 23.30512 20518 ft 403 kts 139°
2026-05-04 18:37 38.34070 23.32786 20259 ft 402 kts 139°
2026-05-04 18:37 38.31929 23.35059 19887 ft 397 kts 139°
2026-05-04 18:38 38.29821 23.37302 19385 ft 394 kts 139°
2026-05-04 18:38 38.27727 23.39529 18872 ft 391 kts 139°
2026-05-04 18:38 38.25645 23.41737 18330 ft 388 kts 139°
2026-05-04 18:38 38.23575 23.43927 17761 ft 385 kts 139°
2026-05-04 18:39 38.21526 23.46095 17275 ft 382 kts 139°
2026-05-04 18:39 38.19311 23.48002 17108 ft 388 kts 151°
2026-05-04 18:39 38.16799 23.49294 17136 ft 391 kts 163°
2026-05-04 18:39 38.14139 23.49927 16747 ft 388 kts 175°
2026-05-04 18:40 38.11469 23.49836 15921 ft 381 kts 188°
2026-05-04 18:40 38.08859 23.49288 14879 ft 379 kts 189°
2026-05-04 18:40 38.06252 23.49016 13880 ft 375 kts 177°
2026-05-04 18:40 38.03656 23.49189 12793 ft 372 kts 175°
2026-05-04 18:41 38.01130 23.49406 11819 ft 367 kts 175°
2026-05-04 18:41 37.98599 23.49643 10890 ft 362 kts 175°
2026-05-04 18:41 37.96109 23.49892 10201 ft 352 kts 175°
2026-05-04 18:41 37.93760 23.50139 10072 ft 327 kts 175°
2026-05-04 18:42 37.91564 23.50376 9808 ft 310 kts 174°
2026-05-04 18:42 37.89468 23.50853 9277 ft 304 kts 166°
2026-05-04 18:42 37.87421 23.51487 8657 ft 301 kts 165°
2026-05-04 18:42 37.85384 23.52135 8231 ft 302 kts 165°
2026-05-04 18:43 37.83354 23.52781 7917 ft 300 kts 165°
2026-05-04 18:43 37.81335 23.53423 7638 ft 297 kts 165°
2026-05-04 18:43 37.79385 23.54045 7500 ft 280 kts 165°
2026-05-04 18:43 37.77539 23.54636 7231 ft 272 kts 165°
2026-05-04 18:44 37.75719 23.55219 7068 ft 268 kts 165°
2026-05-04 18:44 37.74540 23.55685 7008 ft 267 kts 153°
2026-05-04 18:44 37.72540 23.57482 6596 ft 263 kts 136°
2026-05-04 18:44 37.71178 23.58981 6295 ft 263 kts 135°
2026-05-04 18:45 37.69812 23.60507 6010 ft 261 kts 135°
2026-05-04 18:45 37.68457 23.62027 5738 ft 259 kts 135°
2026-05-04 18:45 37.67120 23.63540 5455 ft 257 kts 133°
2026-05-04 18:45 37.66113 23.65340 5178 ft 248 kts 108°
2026-05-04 18:46 37.65787 23.67419 4914 ft 237 kts 82°
2026-05-04 18:46 37.66139 23.69400 4732 ft 229 kts 59°
2026-05-04 18:46 37.67043 23.70998 4557 ft 222 kts 38°
2026-05-04 18:46 37.68311 23.72058 4375 ft 218 kts 24°
2026-05-04 18:47 37.69659 23.72954 4199 ft 219 kts 25°
2026-05-04 18:47 37.71001 23.73854 4019 ft 218 kts 25°
2026-05-04 18:47 37.72322 23.74744 3845 ft 211 kts 25°
2026-05-04 18:47 37.73600 23.75603 3676 ft 205 kts 25°
2026-05-04 18:48 37.74837 23.76433 3547 ft 197 kts 25°
2026-05-04 18:48 37.76021 23.77231 3424 ft 189 kts 25°
2026-05-04 18:48 37.77155 23.77981 3322 ft 181 kts 25°
2026-05-04 18:48 37.78221 23.78787 3193 ft 181 kts 30°
2026-05-04 18:49 37.79256 23.79694 3090 ft 181 kts 33°
2026-05-04 18:49 37.80286 23.80647 3008 ft 181 kts 33°
2026-05-04 18:49 37.81288 23.81588 2934 ft 182 kts 34°
2026-05-04 18:49 37.82300 23.82545 2741 ft 182 kts 34°
2026-05-04 18:50 37.83312 23.83503 2513 ft 181 kts 34°
2026-05-04 18:50 37.84324 23.84461 2273 ft 182 kts 35°
2026-05-04 18:50 37.85332 23.85416 2033 ft 178 kts 35°
2026-05-04 18:50 37.86267 23.86303 1815 ft 156 kts 36°
2026-05-04 18:51 37.87095 23.87089 1595 ft 144 kts 36°
2026-05-04 18:51 37.87886 23.87839 1398 ft 140 kts 36°
2026-05-04 18:51 37.88663 23.88575 1215 ft 139 kts 36°
2026-05-04 18:51 37.89437 23.89308 1023 ft 139 kts 36°
2026-05-04 18:52 37.90204 23.90045 840 ft 139 kts 37°
2026-05-04 18:52 37.90979 23.90767 650 ft 138 kts 37°
2026-05-04 18:52 37.91745 23.91506 455 ft 138 kts 36°
2026-05-04 18:52 37.92508 23.92233 317 ft 138 kts 37°
2026-05-04 18:53 37.93116 23.92811 290 ft 68 kts 37°
2026-05-04 18:53 37.93320 23.93023 292 ft 16 kts 77°
2026-05-04 18:53 37.93270 23.93135 297 ft 13 kts 126°
2026-05-04 18:53 37.93261 23.93220 298 ft 9 kts 57°
2026-05-04 18:54 37.93262 23.93222 298 ft 0 kts 55°
2026-05-04 18:55 37.93312 23.93275 299 ft 13 kts 37°
2026-05-04 18:55 37.93391 23.93350 300 ft 16 kts 37°
2026-05-04 18:56 37.93421 23.93454 301 ft 14 kts 127°
2026-05-04 18:56 37.93360 23.93557 302 ft 16 kts 128°
2026-05-04 18:56 37.93289 23.93678 304 ft 19 kts 127°
2026-05-04 18:56 37.93205 23.93818 301 ft 21 kts 127°
2026-05-04 18:57 37.93109 23.93977 301 ft 24 kts 127°
2026-05-04 18:57 37.93003 23.94155 301 ft 27 kts 127°
2026-05-04 18:57 37.92913 23.94302 302 ft 13 kts 128°
2026-05-04 18:57 37.92879 23.94390 303 ft 10 kts 82°
2026-05-04 18:58 37.92936 23.94459 301 ft 13 kts 37°
2026-05-04 18:58 37.93018 23.94537 301 ft 15 kts 37°
2026-05-04 18:58 37.93092 23.94590 302 ft 12 kts
2026-05-04 18:58 37.93122 23.94612 303 ft 5 kts 67°
2026-05-04 18:59 37.93161 23.94674 301 ft 14 kts 36°
2026-05-04 18:59 37.93245 23.94752 300 ft 17 kts 37°
2026-05-04 18:59 37.93347 23.94849 302 ft 20 kts 37°
2026-05-04 18:59 37.93436 23.94882 302 ft 14 kts 313°
2026-05-04 19:00 37.93519 23.94883 302 ft 16 kts 36°
2026-05-04 19:00 37.93573 23.94894 301 ft 8 kts 310°
2026-05-04 19:00 37.93603 23.94843 301 ft 2 kts 307°
2026-05-04 19:00 37.93607 23.94836 301 ft 0 kts 307°